| time (UTC) | temp F | wind direction | speed MPH | gust MPH | rain 1hr in | rain 24hr in | rain mn in | humidity % | barometer mb |
| 20260505011046 | 69 | 142 | 0.0 | 0.0 | 0.00 | 0.00 | 0.00 | 59 | 1001.1 |
| 20260505010542 | 69 | 163 | 0.0 | 0.0 | 0.00 | 0.00 | 0.00 | 59 | 1001.3 |
| 20260505010038 | 69 | 143 | 0.0 | 0.0 | 0.00 | 0.00 | 0.00 | 58 | 1000.9 |
| 20260505005535 | 69 | 168 | 0.0 | 0.0 | 0.00 | 0.00 | 0.00 | 58 | 1000.9 |
| 20260505005032 | 69 | 177 | 0.0 | 0.0 | 0.00 | 0.00 | 0.00 | 57 | 1000.7 |
| 20260505004529 | 70 | 142 | 0.0 | 0.0 | 0.00 | 0.00 | 0.00 | 56 | 1000.6 |
| 20260505004026 | 70 | 176 | 0.0 | 0.0 | 0.00 | 0.00 | 0.00 | 55 | 1000.7 |
| 20260505003523 | 70 | 165 | 0.0 | 0.0 | 0.00 | 0.00 | 0.00 | 55 | 1000.7 |
| 20260505003020 | 71 | 174 | 0.0 | 0.0 | 0.00 | 0.00 | 0.00 | 55 | 1000.7 |
| 20260505002520 | 71 | 7 | 0.0 | 0.0 | 0.00 | 0.00 | 0.00 | 54 | 1000.5 |
| 20260505002015 | 71 | 160 | 0.0 | 0.0 | 0.00 | 0.00 | 0.00 | 54 | 1000.5 |
| 20260505001512 | 71 | 198 | 0.0 | 0.0 | 0.00 | 0.00 | 0.00 | 55 | 1000.5 |
| 20260505001009 | 71 | 157 | 0.0 | 0.0 | 0.00 | 0.00 | 0.00 | 55 | 1000.4 |
| 20260505000506 | 71 | 137 | 0.0 | 0.0 | 0.00 | 0.00 | 0.00 | 53 | 1000.4 |
| 20260505000004 | 72 | 155 | 0.0 | 0.0 | 0.00 | 0.00 | 0.00 | 53 | 1000.4 |
| 20260504235500 | 73 | 133 | 0.0 | 0.0 | 0.00 | 0.00 | 0.00 | 52 | 1000.6 |
| 20260504234956 | 73 | 116 | 0.0 | 2.0 | 0.00 | 0.00 | 0.00 | 50 | 1000.7 |
| 20260504234454 | 73 | 194 | 0.0 | 0.0 | 0.00 | 0.00 | 0.00 | 50 | 1000.5 |
| 20260504233950 | 74 | 158 | 1.0 | 2.0 | 0.00 | 0.00 | 0.00 | 50 | 1000.9 |
| 20260504233446 | 74 | 196 | 1.0 | 2.0 | 0.00 | 0.00 | 0.00 | 50 | 1001.1 |
| 20260504232943 | 73 | 164 | 0.0 | 0.0 | 0.00 | 0.00 | 0.00 | 50 | 1001.2 |
| 20260504232440 | 73 | 92 | 0.0 | 0.0 | 0.00 | 0.00 | 0.00 | 50 | 1001.2 |
| 20260504231938 | 73 | 219 | 4.0 | 8.0 | 0.00 | 0.00 | 0.00 | 49 | 1001.2 |
| 20260504231433 | 73 | 160 | 0.0 | 0.0 | 0.00 | 0.00 | 0.00 | 52 | 1001.4 |
| 20260504230930 | 73 | 191 | 0.0 | 0.0 | 0.00 | 0.00 | 0.00 | 55 | 1001.5 |
| 20260504230427 | 73 | 235 | 1.0 | 3.0 | 0.00 | 0.00 | 0.00 | 56 | 1001.8 |
| 20260504225926 | 73 | 258 | 1.0 | 4.0 | 0.00 | 0.00 | 0.00 | 58 | 1001.6 |
| 20260504225422 | 73 | 121 | 0.0 | 0.0 | 0.00 | 0.00 | 0.00 | 58 | 1001.7 |
| 20260504224920 | 73 | 177 | 0.0 | 0.0 | 0.00 | 0.00 | 0.00 | 59 | 1001.8 |
| 20260504224416 | 73 | 151 | 0.0 | 0.0 | 0.00 | 0.00 | 0.00 | 59 | 1001.6 |
| 20260504223913 | 74 | 224 | 0.0 | 1.0 | 0.00 | 0.00 | 0.00 | 60 | 1001.6 |
| 20260504223408 | 74 | 161 | 0.0 | 1.0 | 0.00 | 0.00 | 0.00 | 61 | 1001.7 |
| 20260504222905 | 73 | 170 | 0.0 | 0.0 | 0.00 | 0.00 | 0.00 | 62 | 1001.8 |
| 20260504222402 | 72 | 153 | 0.0 | 1.0 | 0.00 | 0.00 | 0.00 | 63 | 1001.8 |
| 20260504221900 | 73 | 112 | 0.0 | 1.0 | 0.00 | 0.00 | 0.00 | 64 | 1002.0 |
| 20260504221351 | 72 | 159 | 0.0 | 0.0 | 0.00 | 0.00 | 0.00 | 66 | 1001.9 |
| 20260504220848 | 71 | 129 | 0.0 | 0.0 | 0.00 | 0.00 | 0.00 | 66 | 1002.1 |
| 20260504220344 | 71 | 162 | 0.0 | 1.0 | 0.00 | 0.00 | 0.00 | 67 | 1002.0 |
| 20260504215842 | 71 | 158 | 1.0 | 2.0 | 0.00 | 0.00 | 0.00 | 68 | 1002.0 |
| 20260504215338 | 70 | 173 | 0.0 | 0.0 | 0.00 | 0.00 | 0.00 | 68 | 1002.0 |
| 20260504214834 | 71 | 151 | 0.0 | 0.0 | 0.00 | 0.00 | 0.00 | 66 | 1001.9 |
| 20260504214331 | 71 | 125 | 0.0 | 0.0 | 0.00 | 0.00 | 0.00 | 63 | 1002.2 |
| 20260504213828 | 71 | 149 | 0.0 | 0.0 | 0.00 | 0.00 | 0.00 | 62 | 1002.1 |
| 20260504213324 | 71 | 200 | 0.0 | 0.0 | 0.00 | 0.00 | 0.00 | 61 | 1002.1 |
| 20260504212822 | 73 | 204 | 0.0 | 0.0 | 0.00 | 0.00 | 0.00 | 60 | 1002.1 |
| 20260504212317 | 73 | 220 | 0.0 | 0.0 | 0.00 | 0.00 | 0.00 | 59 | 1002.0 |
| 20260504211815 | 72 | 175 | 0.0 | 0.0 | 0.00 | 0.00 | 0.00 | 59 | 1002.5 |
| 20260504211311 | 72 | 166 | 0.0 | 0.0 | 0.00 | 0.00 | 0.00 | 59 | 1002.6 |
| 20260504210809 | 73 | 269 | 1.0 | 3.0 | 0.00 | 0.00 | 0.00 | 56 | 1002.5 |
| 20260504210306 | 72 | 185 | 0.0 | 0.0 | 0.00 | 0.00 | 0.00 | 57 | 1002.4 |
| 20260504205803 | 72 | 157 | 0.0 | 0.0 | 0.00 | 0.00 | 0.00 | 58 | 1002.6 |
| 20260504205301 | 72 | 169 | 0.0 | 0.0 | 0.00 | 0.00 | 0.00 | 58 | 1002.7 |
| 20260504204759 | 71 | 200 | 0.0 | 2.0 | 0.00 | 0.00 | 0.00 | 58 | 1002.5 |
| 20260504204257 | 71 | 201 | 0.0 | 0.0 | 0.00 | 0.00 | 0.00 | 58 | 1002.6 |
| 20260504203756 | 71 | 157 | 0.0 | 0.0 | 0.00 | 0.00 | 0.00 | 59 | 1002.6 |
| 20260504203253 | 72 | 274 | 0.0 | 0.0 | 0.00 | 0.00 | 0.00 | 59 | 1002.5 |
| 20260504202753 | 73 | 109 | 0.0 | 0.0 | 0.00 | 0.00 | 0.00 | 58 | 1002.5 |
| 20260504202250 | 72 | 170 | 0.0 | 2.0 | 0.00 | 0.00 | 0.00 | 57 | 1002.5 |
| 20260504201747 | 73 | 258 | 0.0 | 2.0 | 0.00 | 0.00 | 0.00 | 53 | 1002.5 |
| 20260504201244 | 73 | 139 | 0.0 | 0.0 | 0.00 | 0.00 | 0.00 | 54 | 1002.8 |
| 20260504200742 | 73 | 239 | 2.0 | 2.0 | 0.00 | 0.00 | 0.00 | 54 | 1002.7 |
| 20260504200238 | 73 | 200 | 0.0 | 1.0 | 0.00 | 0.00 | 0.00 | 55 | 1002.7 |
| 20260504195734 | 73 | 165 | 0.0 | 0.0 | 0.00 | 0.00 | 0.00 | 56 | 1002.7 |
| 20260504195230 | 73 | 262 | 0.0 | 1.0 | 0.00 | 0.00 | 0.00 | 54 | 1002.6 |
| 20260504194728 | 73 | 145 | 0.0 | 0.0 | 0.00 | 0.00 | 0.00 | 56 | 1002.7 |
| 20260504194223 | 73 | 220 | 1.0 | 2.0 | 0.00 | 0.00 | 0.00 | 55 | 1003.0 |
| 20260504193720 | 72 | 193 | 0.0 | 0.0 | 0.00 | 0.00 | 0.00 | 57 | 1003.5 |
| 20260504193218 | 72 | 184 | 0.0 | 0.0 | 0.00 | 0.00 | 0.00 | 56 | 1003.5 |
| 20260504192716 | 71 | 244 | 3.0 | 9.0 | 0.00 | 0.00 | 0.00 | 57 | 1003.4 |
| 20260504192214 | 72 | 221 | 0.0 | 1.0 | 0.00 | 0.00 | 0.00 | 56 | 1003.5 |
| 20260504191712 | 72 | 230 | 0.0 | 0.0 | 0.00 | 0.00 | 0.00 | 59 | 1003.2 |
| 20260504191209 | 71 | 263 | 1.0 | 3.0 | 0.00 | 0.00 | 0.00 | 57 | 1003.6 |
| 20260504190704 | 72 | 231 | 1.0 | 2.0 | 0.00 | 0.00 | 0.00 | 57 | 1003.7 |
| 20260504190200 | 72 | 176 | 0.0 | 0.0 | 0.00 | 0.00 | 0.00 | 59 | 1003.6 |
| 20260504185657 | 72 | 267 | 1.0 | 3.0 | 0.00 | 0.00 | 0.00 | 56 | 1003.7 |
| 20260504185153 | 73 | 231 | 0.0 | 1.0 | 0.00 | 0.00 | 0.00 | 55 | 1003.8 |
| 20260504184650 | 73 | 177 | 1.0 | 2.0 | 0.00 | 0.00 | 0.00 | 57 | 1003.7 |
| 20260504184145 | 72 | 198 | 0.0 | 2.0 | 0.00 | 0.00 | 0.00 | 56 | 1003.8 |
| 20260504183642 | 72 | 167 | 1.0 | 2.0 | 0.00 | 0.00 | 0.00 | 55 | 1003.8 |
| 20260504183139 | 72 | 185 | 0.0 | 1.0 | 0.00 | 0.00 | 0.00 | 57 | 1003.7 |
| 20260504182637 | 72 | 243 | 1.0 | 4.0 | 0.00 | 0.00 | 0.00 | 55 | 1003.6 |
| 20260504182129 | 73 | 162 | 1.0 | 2.0 | 0.00 | 0.00 | 0.00 | 55 | 1003.5 |
| 20260504181626 | 74 | 294 | 0.0 | 1.0 | 0.00 | 0.00 | 0.00 | 54 | 1003.3 |
| 20260504181124 | 74 | 224 | 3.0 | 7.0 | 0.00 | 0.00 | 0.00 | 55 | 1003.6 |
| 20260504180623 | 73 | 120 | 0.0 | 1.0 | 0.00 | 0.00 | 0.00 | 54 | 1003.3 |
| 20260504180121 | 73 | 225 | 2.0 | 4.0 | 0.00 | 0.00 | 0.00 | 52 | 1003.2 |
| 20260504175618 | 74 | 195 | 0.0 | 3.0 | 0.00 | 0.00 | 0.00 | 51 | 1003.2 |
| 20260504175114 | 74 | 188 | 1.0 | 4.0 | 0.00 | 0.00 | 0.00 | 52 | 1003.2 |
| 20260504174613 | 74 | 201 | 0.0 | 2.0 | 0.00 | 0.00 | 0.00 | 55 | 1003.4 |
| 20260504174109 | 74 | 166 | 0.0 | 0.0 | 0.00 | 0.00 | 0.00 | 57 | 1003.4 |
| 20260504173606 | 73 | 126 | 0.0 | 2.0 | 0.00 | 0.00 | 0.00 | 56 | 1003.4 |
| 20260504173104 | 73 | 147 | 0.0 | 1.0 | 0.00 | 0.00 | 0.00 | 55 | 1003.6 |
| 20260504172600 | 73 | 182 | 0.0 | 1.0 | 0.00 | 0.00 | 0.00 | 55 | 1003.4 |
| 20260504172056 | 73 | 209 | 1.0 | 1.0 | 0.00 | 0.00 | 0.00 | 57 | 1003.4 |
| 20260504171553 | 72 | 204 | 0.0 | 0.0 | 0.00 | 0.00 | 0.00 | 58 | 1003.5 |
| 20260504171050 | 73 | 217 | 0.0 | 0.0 | 0.00 | 0.00 | 0.00 | 58 | 1003.7 |
| 20260504170546 | 73 | 180 | 0.0 | 0.0 | 0.00 | 0.00 | 0.00 | 59 | 1003.5 |
| 20260504150930 | 68 | 155 | 0.0 | 0.0 | 0.00 | 0.00 | 0.00 | 66 | 1004.8 |
| 20260504150426 | 67 | 240 | 0.0 | 1.0 | 0.00 | 0.00 | 0.00 | 66 | 1004.9 |
| 20260504140853 | 64 | 195 | 0.0 | 0.0 | 0.00 | 0.00 | 0.00 | 71 | 1005.3 |
| 20260504140349 | 63 | 193 | 0.0 | 0.0 | 0.00 | 0.00 | 0.00 | 71 | 1005.4 |
| 20260504130818 | 60 | 152 | 0.0 | 0.0 | 0.00 | 0.00 | 0.00 | 75 | 1005.9 |
| 20260504130314 | 60 | 107 | 0.0 | 0.0 | 0.00 | 0.00 | 0.00 | 73 | 1005.7 |
| 20260504120237 | 52 | 174 | 0.0 | 0.0 | 0.00 | 0.00 | 0.00 | 81 | 1005.6 |
| 20260504110705 | 49 | 152 | 0.0 | 0.0 | 0.00 | 0.00 | 0.00 | 85 | 1005.8 |
| 20260504110201 | 49 | 146 | 0.0 | 0.0 | 0.00 | 0.00 | 0.00 | 84 | 1005.9 |
| 20260504100125 | 50 | 164 | 0.0 | 0.0 | 0.00 | 0.00 | 0.00 | 81 | 1005.7 |
| 20260504081518 | 50 | 163 | 0.0 | 0.0 | 0.00 | 0.00 | 0.00 | 80 | 1006.3 |
| 20260504081014 | 50 | 178 | 0.0 | 0.0 | 0.00 | 0.00 | 0.00 | 80 | 1006.4 |
| 20260504080510 | 50 | 158 | 0.0 | 0.0 | 0.00 | 0.00 | 0.00 | 80 | 1006.4 |
| 20260504050317 | 53 | 154 | 0.0 | 0.0 | 0.00 | 0.00 | 0.00 | 74 | 1007.7 |
| 20260504045814 | 53 | 150 | 0.0 | 0.0 | 0.00 | 0.00 | 0.00 | 73 | 1007.7 |
| 20260504045314 | 53 | 136 | 0.0 | 0.0 | 0.00 | 0.00 | 0.00 | 73 | 1007.8 |
| 20260504044812 | 53 | 154 | 0.0 | 0.0 | 0.00 | 0.00 | 0.00 | 73 | 1007.8 |
| 20260504044309 | 53 | 157 | 0.0 | 0.0 | 0.00 | 0.00 | 0.00 | 73 | 1007.7 |
| 20260504043806 | 53 | 164 | 0.0 | 0.0 | 0.00 | 0.00 | 0.00 | 73 | 1008.0 |
| 20260504043303 | 53 | 168 | 0.0 | 0.0 | 0.00 | 0.00 | 0.00 | 73 | 1007.9 |
| 20260504042801 | 53 | 154 | 0.0 | 0.0 | 0.00 | 0.00 | 0.00 | 73 | 1007.7 |
| 20260504042257 | 53 | 168 | 0.0 | 0.0 | 0.00 | 0.00 | 0.00 | 73 | 1008.1 |
| 20260504041753 | 53 | 164 | 0.0 | 0.0 | 0.00 | 0.00 | 0.00 | 73 | 1008.2 |
| 20260504041249 | 53 | 148 | 0.0 | 0.0 | 0.00 | 0.00 | 0.00 | 73 | 1008.1 |
| 20260504040745 | 53 | 146 | 1.0 | 3.0 | 0.00 | 0.00 | 0.00 | 73 | 1008.0 |
| 20260504040243 | 53 | 160 | 0.0 | 0.0 | 0.00 | 0.00 | 0.00 | 73 | 1008.1 |
| 20260504035739 | 53 | 164 | 0.0 | 0.0 | 0.00 | 0.00 | 0.00 | 73 | 1008.2 |
| 20260504035236 | 53 | 157 | 0.0 | 0.0 | 0.00 | 0.00 | 0.00 | 73 | 1008.2 |
| 20260504034734 | 53 | 162 | 0.0 | 0.0 | 0.00 | 0.00 | 0.00 | 73 | 1008.2 |
| 20260504034231 | 53 | 139 | 0.0 | 1.0 | 0.00 | 0.00 | 0.00 | 73 | 1008.5 |
| 20260504033729 | 53 | 152 | 0.0 | 0.0 | 0.00 | 0.00 | 0.00 | 73 | 1008.3 |
| 20260504033226 | 53 | 143 | 0.0 | 0.0 | 0.00 | 0.00 | 0.00 | 73 | 1008.4 |
| 20260504032723 | 53 | 144 | 0.0 | 0.0 | 0.00 | 0.00 | 0.00 | 72 | 1008.5 |
| 20260504032220 | 54 | 146 | 0.0 | 0.0 | 0.00 | 0.00 | 0.00 | 72 | 1008.8 |
| 20260504031711 | 54 | 157 | 0.0 | 0.0 | 0.00 | 0.00 | 0.00 | 71 | 1008.7 |
| 20260504031208 | 54 | 172 | 0.0 | 0.0 | 0.00 | 0.00 | 0.00 | 71 | 1008.6 |
| 20260504030704 | 54 | 165 | 0.0 | 0.0 | 0.00 | 0.00 | 0.00 | 71 | 1008.7 |
| 20260504030202 | 54 | 156 | 0.0 | 0.0 | 0.00 | 0.00 | 0.00 | 71 | 1008.4 |
| 20260504025658 | 54 | 156 | 0.0 | 0.0 | 0.00 | 0.00 | 0.00 | 71 | 1008.7 |
| 20260504025155 | 54 | 149 | 0.0 | 0.0 | 0.00 | 0.00 | 0.00 | 71 | 1008.7 |
| 20260504024652 | 55 | 143 | 0.0 | 0.0 | 0.00 | 0.00 | 0.00 | 71 | 1008.8 |
| 20260504024148 | 54 | 145 | 0.0 | 0.0 | 0.00 | 0.00 | 0.00 | 71 | 1008.8 |
| 20260504023645 | 54 | 146 | 0.0 | 0.0 | 0.00 | 0.00 | 0.00 | 71 | 1008.8 |
| 20260504023141 | 54 | 144 | 0.0 | 0.0 | 0.00 | 0.00 | 0.00 | 71 | 1008.8 |
| 20260504022637 | 54 | 149 | 0.0 | 0.0 | 0.00 | 0.00 | 0.00 | 72 | 1008.7 |
| 20260504022133 | 54 | 157 | 0.0 | 0.0 | 0.00 | 0.00 | 0.00 | 72 | 1008.6 |
| 20260504021632 | 54 | 161 | 0.0 | 0.0 | 0.00 | 0.00 | 0.00 | 72 | 1008.7 |
| 20260504021128 | 54 | 138 | 0.0 | 0.0 | 0.00 | 0.00 | 0.00 | 72 | 1008.6 |
| 20260504020625 | 54 | 145 | 0.0 | 0.0 | 0.00 | 0.00 | 0.00 | 73 | 1008.8 |
| 20260504020121 | 54 | 166 | 0.0 | 0.0 | 0.00 | 0.00 | 0.00 | 73 | 1008.7 |
| 20260504015618 | 54 | 153 | 0.0 | 0.0 | 0.00 | 0.00 | 0.00 | 72 | 1008.7 |
| 20260504015114 | 54 | 151 | 0.0 | 0.0 | 0.00 | 0.00 | 0.00 | 71 | 1008.4 |
| 20260504014610 | 55 | 149 | 0.0 | 0.0 | 0.00 | 0.00 | 0.00 | 71 | 1008.5 |
| 20260504014107 | 55 | 152 | 0.0 | 0.0 | 0.00 | 0.00 | 0.00 | 69 | 1008.6 |
| 20260504013605 | 55 | 155 | 0.0 | 0.0 | 0.00 | 0.00 | 0.00 | 69 | 1008.6 |
| 20260504013102 | 56 | 164 | 0.0 | 0.0 | 0.00 | 0.00 | 0.00 | 68 | 1008.9 |
| 20260504012559 | 56 | 152 | 0.0 | 0.0 | 0.00 | 0.00 | 0.00 | 68 | 1008.8 |
| 20260504012057 | 56 | 150 | 0.0 | 0.0 | 0.00 | 0.00 | 0.00 | 67 | 1008.5 |
| 20260504011554 | 56 | 159 | 0.0 | 0.0 | 0.00 | 0.00 | 0.00 | 67 | 1008.7 |